Regional Weather Roundup
Issued by NWS

Home | Current Version | Previous Version | Graphics & Text | Print | Product List | Glossary On
Versions: 1 2 3 4 5 6 7 8 9 10 11 12 13 14 15 16 17 18 19 20 21 22 23 24 25 26 27 28 29 30 31 32 33 34 35 36 37 38 39 40 41 42 43 44 45 46 47 48 49 50
000
ASUS45 KBOI 031210
RWRID
WEATHER ROUNDUP FOR IDAHO
NATIONAL WEATHER SERVICE BOISE ID
600 AM MDT SUN MAY 03 2015

NOTE: "FAIR" INDICATES FEW OR NO CLOUDS BELOW 12000 FEET
WITH NO SIGNIFICANT WEATHER AND/OR OBSTRUCTIONS TO VISIBILITY

IDZ012-014-031300-
SOUTHWEST IDAHO


CITY           SKY/WX    TMP DP  RH WIND       PRES   REMARKS
BOISE          PTCLDY    48  34  58 S3        29.85R
CALDWELL       PTCLDY    48  28  46 W9        29.87S
MOUNTAIN HOME  MOCLDY    50  29  45 W7        29.84R
$$

IDZ016-017-031300-
SOUTHCENTRAL IDAHO


CITY           SKY/WX    TMP DP  RH WIND       PRES   REMARKS
BURLEY         MOCLDY    49  39  68 SE3       29.87R
JEROME         MOCLDY    50  32  50 S6        29.88R
TWIN FALLS     MOCLDY    57  32  38 SW12      29.87S
$$

IDZ019>023-031300-
SOUTHEAST IDAHO


CITY           SKY/WX    TMP DP  RH WIND       PRES   REMARKS
IDAHO FALLS    MOCLDY    51  32  48 SW3       29.91S
POCATELLO      CLEAR     48  37  65 E7        29.90S
REXBURG        MOCLDY    41  33  73 CALM      29.91R
$$

IDZ006-010-011-018-031-032-031300-
CENTRAL IDAHO MOUNTAINS


CITY           SKY/WX    TMP DP  RH WIND       PRES   REMARKS
MCCALL         CLEAR     34  29  82 CALM      29.92S
HAILEY         PTCLDY    46  30  53 NW9       29.93F
STANLEY          N/A     29  21  72 CALM      30.01R
SALMON         PTCLDY    36  27  69 CALM      29.95R
CHALLIS        MOCLDY    39  22  50 CALM      29.95S
$$

IDZ002-004-006-007-026-031300-
NORTHERN IDAHO


CITY           SKY/WX    TMP DP  RH WIND       PRES   REMARKS
LEWISTON       CLEAR     37  28  70 S5        29.95R WCI  33
LOWELL           N/A     38  33  82 N3        30.02S
COEUR D`ALENE  PTCLDY    39  25  56 NE9       30.00R WCI  33
MULLAN PASS    PTCLDY    37  12  35 CALM      29.98R
$$



USA.gov is the U.S. government's official web portal to all federal, state and local government web resources and services.